Kirksville, MO

8:55 AM CDT on April 30, 2017 (GMT -0500)
Kirksville Regional

Weather History for KIRK - May, 2013

Change the Weather History Date:

Saturday, May 4, 2013

  Actual Average Record
Temperature  
Mean Temperature 44 °F 58 °F  
Max Temperature 51 °F 68 °F 87 °F (1949)
Min Temperature 37 °F 47 °F 28 °F (2005)
Degree Days  
Heating Degree Days 21 8  
Month to date heating degree days 77 33  
Since 1 July heating degree days 5923 5723  
Cooling Degree Days 0 1  
Month to date cooling degree days 0 3  
Year to date cooling degree days 10 10  
Moisture  
Dew Point 42 °F    
Average Humidity 90    
Maximum Humidity 100    
Minimum Humidity 80    
Precipitation  
Precipitation 0.02 in 0.19 in 2.14 in (1999)
Month to date precipitation 1.11 0.76  
Year to date precipitation 17.08 9.95  
Sea Level Pressure  
Sea Level Pressure 29.91 in    
Wind  
Wind Speed 4 mph (East)    
Max Wind Speed 10 mph    
Max Gust Speed 14 mph    
Visibility 7 miles    
Events Rain    
T = Trace of Precipitation, MM = Missing Value Source: NWS Daily Summary

Daily Weather History Graph

Daily Weather History Graph

Search for Another Location

Airport or City:

Trip Planner

Search our weather history database for the weather conditions in past years. The results will help you decide how hot, cold, wet, or windy it might be!

Date:

Astronomy

May. 04, 2013 Rise Set
Actual Time 6:06 AM CDT 8:08 PM CDT
Civil Twilight 5:36 AM CDT 8:38 PM CDT
Nautical Twilight 5:00 AM CDT 9:14 PM CDT
Astronomical Twilight 4:20 AM CDT 9:54 PM CDT
Moon 3:04 AM CDT (5/4) 3:06 PM CDT (5/4)
Length of Visible Light 15h 01m
Length of Day
14h 02m
Waning Crescent, 27% of the Moon is Illuminated
May 4
Waning Crescent
May 9
New
May 17
First Quarter
May 24
Full
May 31
Last Quarter

Hourly Weather History & Observations

Time (CDT) Temp. Windchill Dew Point Humidity Pressure Visibility Wind Dir Wind Speed Gust Speed Precip Events Conditions
12:55 AM 37.0 °F 31.0 °F 37.0 °F 100% 29.84 in 10.0 mi NNW 8.1 mph - N/A   Overcast
1:28 AM 37.4 °F 32.8 °F 37.4 °F 100% 29.80 in 10.0 mi North 5.8 mph - N/A   Overcast
1:55 AM 39.0 °F 34.0 °F 37.9 °F 96% 29.83 in 7.0 mi North 6.9 mph - N/A   Overcast
2:28 AM 39.2 °F 33.6 °F 39.2 °F 100% 29.78 in 2.5 mi NNE 8.1 mph - 0.01 in Rain Light Rain
2:39 AM 39.2 °F 33.6 °F 39.2 °F 100% 29.77 in 3.0 mi North 8.1 mph - 0.01 in   Overcast
2:55 AM 39.9 °F 34.5 °F 39.9 °F 100% 29.81 in 2.5 mi NNE 8.1 mph - 0.01 in   Overcast
3:31 AM 41.0 °F - 41.0 °F 100% 29.79 in 1.5 mi Calm Calm - 0.01 in   Overcast
3:50 AM 41.0 °F - 41.0 °F 100% 29.79 in 2.0 mi Calm Calm - 0.01 in   Overcast
3:55 AM 41.0 °F 39.0 °F 41.0 °F 100% 29.82 in 2.0 mi NNE 3.5 mph - 0.01 in   Overcast
4:23 AM 41.0 °F 38.0 °F 41.0 °F 100% 29.80 in 2.0 mi SSE 4.6 mph - N/A   Overcast
4:30 AM 41.0 °F 39.0 °F 41.0 °F 100% 29.80 in 1.2 mi SSE 3.5 mph - N/A   Overcast
4:55 AM 39.9 °F 36.7 °F 39.9 °F 100% 29.85 in 2.0 mi SSE 4.6 mph - N/A   Overcast
5:08 AM 39.2 °F 33.6 °F 39.2 °F 100% 29.82 in 1.5 mi SE 8.1 mph - N/A   Overcast
5:27 AM 39.2 °F 34.2 °F 39.2 °F 100% 29.83 in 2.5 mi ESE 6.9 mph - N/A   Overcast
5:34 AM 39.2 °F 32.5 °F 39.2 °F 100% 29.83 in 6.0 mi ESE 10.4 mph - N/A   Overcast
5:42 AM 39.2 °F 33.6 °F 39.2 °F 100% 29.83 in 10.0 mi ESE 8.1 mph - N/A   Overcast
5:55 AM 39.9 °F 33.4 °F 39.0 °F 97% 29.87 in 8.0 mi ESE 10.4 mph - N/A   Overcast
6:06 AM 39.2 °F 33.0 °F 39.2 °F 100% 29.84 in 10.0 mi ESE 9.2 mph - N/A   Overcast
6:55 AM 39.0 °F 33.4 °F 37.9 °F 96% 29.90 in 10.0 mi ESE 8.1 mph - N/A   Overcast
7:55 AM 37.9 °F 32.7 °F 37.0 °F 97% 29.93 in 10.0 mi ESE 6.9 mph - N/A   Overcast
8:55 AM 39.0 °F 34.8 °F 37.0 °F 93% 29.95 in 10.0 mi ESE 5.8 mph - N/A   Overcast
9:55 AM 39.9 °F 37.8 °F 37.9 °F 93% 29.96 in 10.0 mi SE 3.5 mph - N/A   Overcast
10:11 AM 41.0 °F 39.0 °F 37.4 °F 87% 29.92 in 10.0 mi SSE 3.5 mph - N/A   Overcast
10:48 AM 42.8 °F 41.1 °F 39.2 °F 87% 29.93 in 8.0 mi SE 3.5 mph - N/A   Overcast
10:55 AM 42.1 °F 39.2 °F 39.0 °F 89% 29.97 in 7.0 mi East 4.6 mph - N/A   Overcast
11:22 AM 44.6 °F 42.2 °F 39.2 °F 81% 29.94 in 10.0 mi East 4.6 mph - N/A   Overcast
11:55 AM 46.0 °F - 41.0 °F 83% 29.97 in 10.0 mi Calm Calm - N/A   Overcast
12:41 PM 46.4 °F - 41.0 °F 81% 29.94 in 10.0 mi Calm Calm - N/A   Overcast
12:55 PM 48.0 °F - 42.1 °F 80% 29.97 in 10.0 mi NE 5.8 mph - N/A   Overcast
1:55 PM 48.9 °F - 44.1 °F 83% 29.97 in 10.0 mi NE 8.1 mph - N/A   Overcast
2:55 PM 50.0 °F - 44.1 °F 80% 29.98 in 10.0 mi East 5.8 mph - N/A   Overcast
3:55 PM 50.0 °F - 45.0 °F 83% 29.97 in 10.0 mi ENE 3.5 mph - N/A   Overcast
4:55 PM 51.1 °F - 46.0 °F 83% 29.98 in 10.0 mi East 3.5 mph - N/A   Overcast
5:55 PM 51.1 °F - 46.9 °F 86% 29.99 in 4.0 mi Calm Calm - N/A   Overcast
6:55 PM 50.0 °F - 46.9 °F 89% 30.00 in 10.0 mi SSW 3.5 mph - N/A   Overcast
7:55 PM 48.9 °F - 46.9 °F 93% 30.02 in 10.0 mi WSW 3.5 mph - N/A   Overcast
8:06 PM 48.2 °F - 46.4 °F 93% 29.99 in 10.0 mi SW 3.5 mph - N/A   Overcast
8:55 PM 48.9 °F - 46.0 °F 90% 30.03 in 10.0 mi Calm Calm - N/A   Overcast
9:55 PM 48.0 °F - 46.0 °F 93% 30.05 in 10.0 mi West 3.5 mph - N/A   Overcast
10:55 PM 48.0 °F - 46.9 °F 96% 30.05 in 8.0 mi Calm Calm - 0.00 in Rain Light Rain
11:15 PM 48.2 °F - 46.4 °F 93% 30.02 in 9.0 mi NW 3.5 mph - 0.00 in   Overcast
11:37 PM 48.2 °F - 46.4 °F 93% 30.03 in 8.0 mi Calm Calm - 0.00 in   Overcast
11:52 PM 48.2 °F - 46.4 °F 93% 30.03 in 8.0 mi Calm Calm - 0.00 in   Overcast
11:55 PM 48.0 °F - 46.9 °F 96% 30.05 in 8.0 mi Calm Calm - 0.00 in   Overcast